GFSMW_sfc_temp_210.txt.gz
Temp
93 94 94 94 93 91 89 88 87 87 88 89 90 91 93 95 96 97 95 94 96 96 93 96 96 94 92 87 83 85 82 78 82 83 90 92 95 94 95 94 95 92 93
92 92 92 92 92 91 89 88 87 87 87 91 91 94 94 96 97 98 95 95 94 94 94 92 94 92 93 89 86 81 77 79 81 80 83 86 91 95 95 93 92 91 91
91 90 90 91 92 90 89 88 88 87 87 90 91 90 92 92 93 94 95 97 95 94 94 92 92 92 91 94 89 81 80 78 85 83 78 80 80 86 91 87 91 86 87
93 92 91 90 92 92 92 90 89 88 88 88 90 87 90 90 94 95 98 97 96 94 95 94 93 92 94 90 91 91 82 83 80 85 82 82 82 75 80 80 86 84 86
94 93 93 92 94 94 94 93 89 88 89 88 88 90 87 94 95 95 92 91 92 94 95 94 93 92 95 93 89 89 87 87 84 83 86 85 83 81 74 64 76 82 90
95 95 95 95 94 96 95 95 89 87 87 87 87 87 88 88 92 92 92 94 97 98 95 94 93 92 92 92 91 88 88 86 87 89 89 84 79 78 71 72 72 73 80
96 94 93 93 93 94 94 95 91 86 87 88 87 87 86 87 87 87 92 92 96 97 94 92 91 94 93 92 91 89 86 88 84 84 86 87 81 75 73 72 71 70 77
98 96 96 94 94 94 94 94 92 87 87 88 87 87 87 90 91 90 92 95 96 97 95 93 92 92 92 92 91 92 92 87 88 84 82 81 71 74 72 70 70 75 76
98 97 98 97 95 94 94 94 92 89 88 88 88 87 87 87 92 90 91 93 91 95 92 91 91 91 91 91 90 93 90 89 85 83 79 78 74 73 72 76 75 73 77
100 99 98 97 98 98 97 96 95 91 90 90 89 89 89 88 89 90 88 90 92 91 90 91 91 90 91 91 89 90 91 86 83 78 76 72 71 71 82 84 83 84 80
101 101 101 100 100 101 100 98 96 94 91 91 91 90 90 90 89 89 89 89 90 89 89 89 89 89 89 89 88 87 88 83 76 76 75 73 73 81 85 84 83 81 81
104 103 103 103 101 101 100 99 96 94 93 91 90 89 89 90 89 88 90 91 89 90 89 89 88 88 89 89 88 87 84 78 78 77 78 77 79 78 78 81 75 75 76
101 102 102 101 99 98 98 97 96 96 95 92 90 88 87 87 87 87 88 89 89 89 91 90 88 88 89 89 88 84 78 80 78 80 79 78 78 75 77 77 78 78 77
95 99 98 97 97 95 96 95 96 98 95 92 90 88 88 87 88 88 88 89 89 89 90 90 89 89 90 90 85 80 78 79 82 78 80 79 77 75 75 74 73 74 77
92 95 94 94 94 93 93 94 95 94 94 91 90 89 89 90 90 90 90 90 90 91 90 91 91 90 91 93 84 80 79 81 78 80 80 79 74 67 70 79 73 74 76
90 92 92 93 91 91 91 91 91 92 93 90 89 90 89 89 89 89 90 89 89 89 90 90 90 90 94 67 69 76 79 81 78 75 75 73 70 67 64 65 63 66 71
89 92 92 92 91 91 91 91 91 91 90 89 89 89 88 88 88 89 89 89 88 89 89 89 90 90 84 64 65 70 83 81 78 76 76 80 78 73 73 64 64 64 63
82 86 93 95 94 94 93 93 93 90 89 88 88 89 88 87 87 87 87 87 88 88 88 89 89 87 78 62 63 68 82 79 79 79 79 76 75 75 76 75 74 74 72
80 83 88 92 95 95 93 91 91 89 89 88 88 88 88 87 87 86 86 87 87 87 88 90 89 80 67 60 62 72 81 78 77 78 77 77 75 62 64 75 72 72 72
82 84 90 92 93 92 92 89 89 89 87 89 89 89 88 87 87 87 86 87 88 88 92 89 85 71 71 58 59 73 84 77 78 76 74 66 72 59 60 74 73 71 71
82 85 89 93 91 92 91 87 89 87 90 91 91 89 88 87 88 87 87 87 87 89 88 85 78 78 75 67 58 62 83 82 80 79 78 77 56 55 58 62 74 69 71
74 80 85 86 89 90 89 87 87 90 91 90 89 88 87 90 90 87 87 87 86 86 83 77 76 76 74 61 56 59 67 71 81 80 82 71 53 53 55 64 55 58 65
70 73 77 83 86 87 89 87 87 89 89 88 87 87 88 90 89 86 86 88 87 88 79 79 75 72 75 71 55 55 59 63 79 83 68 54 50 51 57 54 54 53 79
69 70 71 71 74 83 87 89 87 87 87 86 86 87 87 87 88 92 91 94 91 90 87 81 76 75 79 76 71 74 74 62 71 61 68 67 65 60 67 66 68 80 79
67 67 67 66 67 72 76 79 89 88 87 87 87 87 91 89 89 93 92 94 92 90 89 86 83 82 80 78 70 72 79 80 72 73 74 75 76 75 76 77 77 77 78
65 63 62 64 65 67 67 70 76 89 88 89 91 93 96 93 94 91 86 54 56 58 58 62 78 85 66 54 52 51 51 53 56 76 77 77 78 77 77 76 76 77 73

GFSMW_sfc_temp_216.txt.gz
Temp
96 96 97 96 94 92 88 87 86 84 85 85 84 86 87 88 90 92 93 91 93 94 90 89 87 88 82 76 71 79 78 78 80 79 81 83 87 80 73 73 71 71 71
94 94 95 94 93 90 87 86 85 84 85 86 85 88 88 87 91 92 90 93 92 94 92 89 87 86 83 70 69 69 78 78 81 76 77 74 80 82 77 75 71 71 69
92 92 92 92 94 89 87 85 85 85 84 86 87 88 89 90 90 91 89 90 92 92 90 92 89 88 86 78 74 77 78 76 79 78 74 71 71 74 80 75 76 77 75
95 93 92 91 92 91 90 87 85 85 85 85 86 85 84 84 88 88 89 90 89 89 92 90 89 88 87 84 84 83 80 78 77 79 77 76 75 69 70 74 74 76 75
96 94 94 92 94 94 91 90 85 84 85 84 84 87 85 87 89 90 90 90 91 93 92 89 89 88 87 85 84 83 82 80 77 75 74 75 73 75 70 68 71 72 73
97 96 95 93 93 95 93 91 85 83 84 84 84 83 85 84 86 88 88 88 89 89 87 91 89 88 88 86 85 84 83 80 79 77 75 74 73 70 70 69 70 67 71
98 96 92 91 91 93 93 92 86 83 84 85 84 84 84 86 85 87 87 88 88 89 88 87 88 89 88 87 86 84 82 81 79 78 76 76 74 74 73 71 68 68 70
99 97 96 94 92 93 92 92 87 84 85 84 84 84 84 86 87 87 87 87 88 89 89 91 91 91 89 87 86 85 82 81 79 77 76 76 75 76 75 71 69 69 67
99 98 99 96 94 93 93 93 88 85 85 86 85 84 85 84 86 86 86 88 87 91 90 92 91 89 88 88 86 85 82 80 79 73 76 77 78 78 76 74 73 67 63
102 99 98 96 97 96 96 95 93 87 86 87 87 87 86 86 86 86 87 88 90 91 90 90 89 88 88 87 86 83 81 79 74 76 77 77 77 78 75 72 70 69 65
102 102 101 100 100 100 99 97 95 90 87 88 88 87 87 87 86 86 86 88 90 89 89 88 87 87 87 87 85 83 81 77 77 78 76 75 75 73 71 70 69 67 67
105 105 103 102 101 101 99 98 95 92 89 88 86 86 87 86 86 86 87 88 87 88 88 88 87 87 87 87 85 81 80 77 77 77 76 73 75 70 68 70 69 68 69
100 104 104 100 99 98 98 95 95 94 92 88 87 87 85 85 85 85 86 87 87 88 89 88 87 87 87 86 82 80 78 78 77 76 75 72 70 69 69 69 68 68 69
94 97 99 96 96 95 95 94 96 97 93 89 87 86 86 86 86 86 87 87 88 87 87 88 88 88 88 87 81 80 78 79 78 76 74 71 69 67 69 67 67 67 66
94 96 96 94 93 93 92 94 95 93 92 87 87 86 87 88 88 87 87 88 87 87 88 88 88 88 88 89 80 79 78 77 75 73 70 68 67 67 67 68 64 64 63
89 90 91 96 93 92 92 93 92 92 92 88 87 87 87 87 86 87 87 87 87 87 87 87 88 88 88 69 72 77 79 75 70 67 67 67 67 66 66 67 66 64 60
85 86 88 93 94 94 94 94 93 93 89 88 88 87 86 86 86 87 87 86 85 86 86 87 88 86 78 67 68 72 78 74 70 68 68 73 73 69 66 65 66 66 66
84 85 87 89 94 98 96 96 96 93 91 89 88 87 86 86 86 86 85 86 86 85 85 86 87 82 77 64 65 71 77 73 72 72 71 69 69 66 69 67 65 65 66
85 86 88 90 91 96 96 93 94 92 91 90 88 88 87 86 86 85 85 85 85 85 85 86 86 79 73 61 63 73 76 75 74 72 72 72 68 65 63 69 68 66 65
79 81 82 84 92 94 95 91 91 90 88 89 89 88 88 87 86 85 85 85 86 85 88 86 83 72 75 60 61 73 78 73 73 71 69 68 65 63 63 70 67 64 66
73 78 79 83 89 94 95 89 89 88 90 91 90 88 88 86 87 86 85 85 85 85 85 84 79 78 74 69 59 59 78 75 73 71 69 66 59 60 62 63 68 64 66
69 72 73 79 80 80 93 90 88 91 91 90 88 87 87 89 89 85 85 85 84 84 83 80 78 78 76 67 58 59 63 71 73 71 70 63 56 58 62 65 60 60 60
65 68 69 78 76 77 78 87 91 91 89 88 87 86 87 87 87 85 84 85 84 85 83 79 76 76 76 74 58 58 60 65 74 72 65 56 53 56 60 60 58 57 65
62 63 65 73 70 71 73 73 76 90 88 86 86 85 85 84 86 87 87 87 86 86 83 78 75 76 76 75 73 71 67 63 66 61 62 62 62 62 65 64 62 66 67
61 62 64 65 65 66 66 67 70 74 87 87 87 86 87 85 85 87 84 89 88 85 85 83 81 76 76 75 69 70 75 72 66 65 65 64 65 66 65 66 67 67 68
61 61 62 63 64 64 62 63 66 68 75 85 87 87 88 88 88 80 76 53 53 52 57 65 77 80 69 56 55 54 55 54 56 67 66 66 68 68 67 68 67 68 68

GFSMW_sfc_temp_219.txt.gz
Temp
87 88 90 88 85 83 79 78 76 75 76 75 74 75 76 78 79 81 83 85 85 86 83 80 80 80 76 73 71 70 72 73 74 72 76 75 73 71 70 69 68 69 69
86 87 87 86 84 82 80 77 76 76 76 76 76 76 77 80 80 81 83 84 85 85 84 82 80 79 77 73 72 68 70 72 74 70 69 66 70 70 69 69 68 68 68
84 85 85 84 84 81 80 78 76 76 76 77 77 77 79 81 81 79 79 83 85 85 83 82 81 80 77 74 72 72 72 71 73 74 70 65 63 67 69 68 68 69 69
86 85 85 83 84 82 82 79 77 76 77 77 76 76 75 75 78 79 80 80 83 83 84 82 82 80 79 78 77 77 75 73 71 73 73 70 69 65 63 66 68 69 68
88 85 86 86 85 84 83 81 78 76 77 77 76 75 76 77 78 79 80 79 80 82 84 83 81 80 79 79 77 77 77 75 73 69 70 70 69 68 66 63 65 67 67
89 87 88 87 85 86 84 82 79 76 77 77 76 76 76 76 76 77 77 77 79 80 81 82 81 81 80 79 78 78 76 75 74 73 70 69 67 66 66 62 63 62 65
89 86 85 85 85 85 84 82 80 77 77 76 75 76 77 77 76 77 77 77 78 78 80 80 80 79 80 80 79 78 77 75 74 72 71 70 67 67 66 64 63 62 63
90 88 86 86 86 86 85 84 80 78 77 76 76 75 77 77 77 78 78 78 78 79 81 81 81 81 81 80 79 78 75 74 72 73 73 69 68 69 69 65 63 58 60
76 88 88 87 87 87 85 85 80 79 80 79 75 76 76 76 77 78 78 79 79 82 81 82 81 81 81 80 79 77 75 74 72 73 71 69 70 65 63 61 61 59 54
73 84 88 87 88 89 87 87 82 81 80 80 81 78 78 77 77 77 78 79 80 81 80 80 81 80 80 80 79 76 75 73 72 72 70 68 66 64 63 62 60 59 57
85 90 90 90 89 90 89 88 83 82 81 81 81 81 79 78 78 77 78 79 80 81 80 80 79 79 79 80 79 76 75 74 72 71 68 65 63 61 62 61 60 59 58
92 91 92 89 90 89 90 89 86 83 83 83 82 81 80 79 78 78 78 79 79 80 80 80 79 79 80 79 76 75 76 74 71 69 66 64 68 61 61 61 60 59 59
80 85 88 90 90 90 90 90 89 85 84 83 82 81 79 78 78 77 78 79 79 80 80 80 79 79 80 77 76 75 75 72 71 68 65 63 62 60 59 59 60 59 62
82 86 83 90 91 91 90 90 89 88 85 83 82 80 80 79 78 78 78 79 80 79 79 80 80 80 80 77 76 74 74 71 68 65 62 61 60 60 58 58 56 55 56
81 81 79 87 90 89 88 89 89 88 85 83 82 80 80 80 78 78 79 80 80 80 80 79 80 80 81 79 75 74 74 68 65 62 62 60 66 67 64 58 53 52 51
81 80 81 84 86 84 85 87 87 85 84 83 82 82 78 79 78 78 79 79 79 79 79 79 79 79 81 69 70 74 71 67 63 60 58 59 65 65 66 66 65 58 52
79 78 79 81 81 82 86 86 86 85 83 82 82 80 81 78 78 79 78 79 78 78 78 79 79 75 73 67 68 70 70 66 63 59 59 65 67 62 59 64 64 64 64
73 75 77 78 79 83 84 83 84 85 81 81 81 81 81 79 78 78 78 78 77 78 77 78 77 74 71 65 65 68 68 65 63 61 61 60 59 59 59 58 58 57 56
70 72 76 77 78 81 84 84 82 82 82 81 81 81 81 79 79 78 77 80 78 77 78 78 76 73 68 61 63 68 68 65 64 63 62 61 58 61 62 59 57 56 56
69 69 73 78 77 77 78 83 82 81 79 82 82 81 81 81 79 79 79 78 78 77 79 78 75 69 70 59 62 69 71 64 63 61 62 63 60 62 61 59 57 56 54
67 68 69 75 74 74 77 80 81 80 81 82 83 82 82 81 80 79 79 80 78 78 77 76 73 73 72 64 60 63 71 68 63 61 58 57 59 59 59 59 58 56 57
64 65 65 71 72 71 72 76 78 81 82 82 81 81 81 84 83 81 80 79 78 77 76 74 73 71 69 63 57 61 66 66 65 60 58 56 57 57 59 58 57 58 58
62 64 65 65 66 67 69 67 69 72 80 80 79 79 80 81 81 81 79 79 78 78 76 75 73 71 69 69 57 58 60 63 65 62 59 55 54 56 57 58 59 58 56
60 62 62 63 62 64 66 65 66 69 75 78 78 79 80 79 79 82 81 81 79 79 77 75 73 72 72 70 63 63 62 61 62 60 58 57 56 58 58 58 58 57 57
59 60 59 59 61 62 63 65 64 67 71 77 78 78 80 80 78 79 76 82 82 80 79 75 74 72 72 72 64 63 65 65 61 59 56 55 54 54 55 57 58 57 58
59 59 59 59 59 60 63 64 65 67 69 73 78 77 78 79 78 70 65 52 51 52 60 62 72 74 65 54 53 53 53 52 54 61 59 54 55 56 56 56 56 59 60

GFSMW_sfc_temp_222.txt.gz
Temp
83 84 85 84 81 80 76 75 73 73 73 71 72 72 73 75 76 77 81 81 81 83 80 77 78 77 75 73 71 71 71 72 72 70 71 70 70 70 68 68 68 69 69
80 82 82 82 81 79 77 74 75 73 73 73 73 73 74 77 77 77 80 81 82 82 81 79 78 76 75 74 73 70 70 71 72 70 67 64 68 69 70 70 70 68 68
80 82 80 81 81 79 77 75 75 74 73 75 73 74 76 76 76 76 77 79 81 82 81 79 77 77 75 74 73 71 72 70 71 72 69 66 64 65 70 70 70 68 68
83 82 80 79 80 80 80 77 76 75 74 74 73 73 73 72 74 75 77 78 80 81 81 80 79 77 75 75 75 75 73 72 70 70 72 70 68 65 65 66 66 67 68
83 82 82 81 82 82 81 78 76 76 75 74 73 73 72 73 75 75 76 76 78 79 80 79 78 78 76 75 75 75 74 73 71 69 68 68 67 68 64 60 62 63 65
84 85 85 83 81 82 82 80 76 75 75 74 73 74 74 73 73 74 75 75 75 77 79 79 78 77 77 76 76 75 75 73 71 70 69 67 65 63 62 61 61 58 60
85 83 82 81 80 80 80 80 77 74 75 74 73 73 74 74 74 73 74 75 74 75 78 77 77 77 77 77 76 75 73 72 72 71 68 67 66 65 64 62 60 59 59
86 84 84 83 80 80 80 80 77 76 75 76 73 73 75 74 74 75 75 75 75 76 78 79 79 79 78 77 76 74 73 71 72 71 68 66 64 65 64 62 58 56 55
86 84 85 85 82 81 80 80 77 77 76 76 74 72 73 74 74 75 75 75 76 78 79 79 78 78 78 77 76 73 72 72 71 69 66 63 60 61 59 57 57 57 51
83 86 85 86 86 84 82 82 79 78 77 77 76 75 73 74 74 74 75 77 77 78 78 78 78 78 78 77 75 73 72 71 69 67 64 62 60 59 57 57 57 56 54
82 84 86 87 87 87 84 82 79 78 77 77 77 75 74 74 74 73 74 76 77 77 77 78 77 77 78 76 74 73 74 70 67 65 62 60 59 58 57 57 55 55 55
77 84 84 87 86 86 84 82 80 79 79 79 77 77 76 76 76 75 75 76 77 77 77 77 77 77 77 76 75 74 74 71 66 63 62 60 64 57 56 55 54 54 54
77 76 81 85 85 86 86 84 80 80 80 79 78 77 76 76 76 76 76 77 77 76 77 77 77 77 77 75 75 75 71 70 66 63 61 59 58 55 54 53 53 52 56
77 77 73 86 86 86 86 84 82 82 81 79 78 77 77 77 77 77 76 77 77 77 76 77 77 77 76 75 74 72 70 68 63 61 59 59 58 55 53 52 50 51 50
72 76 76 82 85 84 84 85 84 82 82 79 79 78 78 79 77 76 76 77 77 78 77 77 77 77 76 77 74 72 69 64 61 59 59 58 62 64 60 53 48 50 50
74 73 74 77 80 85 84 86 84 82 82 80 79 79 78 77 77 77 77 77 77 77 76 76 77 77 80 68 69 71 68 64 61 57 56 58 64 64 64 64 63 57 52
70 70 70 74 75 78 80 85 85 83 81 80 80 78 78 77 77 77 77 77 76 76 75 76 76 75 72 66 66 68 68 63 59 57 56 62 64 60 57 63 63 63 62
66 68 69 71 75 76 79 80 83 80 81 79 79 78 78 78 77 77 77 77 75 76 75 76 75 72 70 63 64 66 65 63 59 58 57 57 55 56 57 55 54 54 54
65 66 68 71 72 73 74 77 76 78 79 78 78 78 79 77 77 76 76 77 76 75 75 75 73 72 67 61 62 66 65 62 59 59 58 58 56 59 59 56 54 52 54
66 64 66 73 70 70 73 78 79 75 78 79 79 79 79 79 77 78 77 77 76 76 76 75 74 69 68 59 60 67 68 62 59 57 58 61 58 58 57 55 53 52 53
65 65 66 69 67 67 71 75 75 75 78 79 79 79 80 79 79 78 79 76 76 75 76 75 72 71 68 63 59 62 69 65 61 58 56 56 58 57 55 55 55 55 54
63 65 65 64 66 66 66 67 66 67 70 78 79 79 79 80 79 78 79 77 76 75 75 74 72 71 70 62 58 60 63 63 63 59 56 55 56 56 53 55 55 55 56
61 63 62 63 64 65 66 64 64 66 67 74 77 78 79 80 80 79 78 77 76 76 75 74 73 70 70 66 57 58 59 60 62 59 58 55 54 54 55 56 56 56 54
59 60 61 60 60 62 65 65 65 66 67 70 75 76 78 76 79 80 80 79 77 76 75 75 73 70 69 67 64 66 64 60 61 59 56 56 55 56 56 56 55 54 54
57 59 59 59 59 61 62 63 64 66 66 68 75 75 77 76 77 78 73 80 80 77 78 77 76 71 70 69 64 64 67 62 60 56 53 52 52 53 53 54 54 54 54
57 56 57 58 59 59 60 61 62 64 66 68 73 75 75 76 77 71 66 52 52 53 59 61 71 73 62 54 54 51 52 51 53 58 54 52 52 53 53 54 53 54 56